Other Surface Observations
Issued by NWS Charleston, SC

Home | Current Version | Previous Version | Text Only | Print | Product List | Glossary On
Versions: 1 2 3 4 5 6 7 8 9 10 11 12 13 14 15 16 17 18 19 20 21 22 23 24 25 26 27 28 29 30 31 32 33 34 35 36 37 38 39 40 41 42 43 44 45 46 47 48 49 50
000
SXUS52 KCHS 272327
OSOCHS

MARINE OBSERVATIONS
NATIONAL WEATHER SERVICE CHARLESTON SC
700 PM EDT MON MAR 27 2017

...DOWNTOWN CHARLESTON AND HARBOR...

CITY           SKY/WX    TMP DP  RH WIND       PRES   REMARKS
WATERFRONT PRK   N/A     70  61  73 S7        30.02S

...LAKE MOULTRIE...

CITY           SKY/WX    TMP DP  RH WIND       PRES   REMARKS
PINOPOLIS        N/A     72  61  68 CALM      29.93F

...LAKE AND SUPPLEMENTAL COASTAL OBSERVATIONS...

STATION/POSITION TIME  TEMP    WIND        PRES    WAVE   SWELL
                       AIR SEA DIR/SP/G            HT/PER HT/PER/DIR
                 (UTC) (F)     (DEG/KT/KT) (MB)    (FT/S) (FT/S/D)
FORT PULASKI     2300   69 65  160/  7/  9 1016.9
SAPELO ISLAND    2300   72     150/  9     1017.0
WINYAH BAY       2230   70     190/ 10     1017.0S
LAKE MURRAY      2320   69      CALM  /  2 1013.9F
ACE BASIN NERRS  2230   69     160/  2     1017.0S


...C-MAN AND BUOY OBSERVATIONS...

STATION/POSITION TIME  TEMP    WIND        PRES    WAVE   SWELL
                       AIR SEA DIR/SP/G            HT/PER HT/PER/DIR
                 (UTC) (F)     (DEG/KT/KT) (MB)    (FT/S) (FT/S/D)
BUOY 41004       2250   72 75  170/ 12/ 16 1016.7F   4/10   3/130/10
BUOY 41008       2250   66 65  150/  8/ 10 1016.7F   4/11   3/130/11
FOLLY BEACH CMAN 2300   66     160/  8/  9 1017.7F
CAPERS NS BUOY   2308   66     170/  6/  8 1016.9F
FRIPP NS BUOY    2308   64 64  170/  8/ 10 1016.2F
5E ST. MARYS GA  2300      67                N/A     3/10   2/120/11


STATION/POSITION TIME  TEMP    WIND        PRES    WAVE   SWELL
                       AIR SEA DIR/SP/G            HT/PER HT/PER/DIR
                 (UTC) (F)     (DEG/KT/KT) (MB)    (FT/S) (FT/S/D)
FRYING PAN BUOY  2310   72 77  180/  8/ 12 1017.4
BUOY 41025       2250   71 76  190/ 12/ 16 1017.3F   4/ 8   3/ 80/ 8
CAPE LOOKOUT NC  2300   67     190/  7/  8 1017.5R
BUOY 41002       2250   69 73   80/  8/ 10 1018.7F   6/10   7/110/10
BUOY 41010       NOT AVBL
ST AUGUSTINE FL  2300   69 72  130/  8/  9 1017.8F

$$




USA.gov is the U.S. government's official web portal to all federal, state and local government web resources and services.